F0657D65 Weather Reports


Display with metric or nautical units.
time (UTC)temp
F
wind
direction
speed
MPH
gust
MPH
rain 1hr
in
rain 24hr
in
rain mn
in
humidity
%
barometer
mb
20260505021600 52 86 0.0 0.0 0.00 0.28 0.00 99 1011.8
20260505020058 52 73 0.0 0.0 0.00 0.28 0.00 98 1011.8
20260505014554 52 69 1.0 3.0 0.00 0.28 0.00 99 1011.8
20260505013053 53 115 1.0 3.0 0.00 0.28 0.00 99 1011.7
20260505011555 53 61 0.0 0.0 0.00 0.28 0.00 99 1011.8
20260505010055 53 49 0.0 2.0 0.00 0.30 0.00 99 1011.8
20260505004550 53 55 1.0 3.0 0.00 0.30 0.00 99 1011.8
20260505003048 53 33 0.0 2.0 0.00 0.30 0.00 98 1011.9
20260505001547 53 80 0.0 3.0 0.00 0.30 0.00 98 1012.1
20260505000050 53 65 0.0 5.0 0.00 0.30 0.00 98 1012.1
20260504234544 54 130 1.0 3.0 0.00 0.30 0.00 98 1012.1
20260504233044 54 62 1.0 3.0 0.00 0.30 0.00 98 1012.3
20260504231542 54 34 0.0 3.0 0.00 0.30 0.00 98 1012.4
20260504230040 55 92 0.0 1.0 0.00 0.37 0.00 98 1012.5
20260504224540 55 329 0.0 2.0 0.00 0.37 0.00 98 1012.5
20260504223039 55 38 0.0 2.0 0.00 0.37 0.00 98 1012.4
20260504221538 55 35 0.0 2.0 0.00 0.37 0.00 98 1012.5
20260504220035 55 41 0.0 2.0 0.00 0.78 0.37 98 1012.8
20260504214542 55 74 0.0 2.0 0.00 0.78 0.37 98 1012.9
20260504213038 55 42 0.0 1.0 0.00 0.78 0.37 98 1013.1
20260504211533 56 63 0.0 5.0 0.00 0.78 0.37 98 1013.2
20260504210032 56 246 0.0 3.0 0.00 0.78 0.37 98 1013.5
20260504204530 56 333 0.0 3.0 0.00 0.78 0.37 98 1013.6
20260504203032 56 355 0.0 7.0 0.00 0.78 0.37 97 1013.6
20260504201530 56 5 0.0 2.0 0.00 0.78 0.37 97 1013.3
20260504200038 56 319 0.0 3.0 0.00 0.78 0.37 97 1013.2
20260504194529 56 320 0.0 2.0 0.01 0.78 0.37 97 1013.1
20260504193029 56 320 0.0 2.0 0.01 0.78 0.37 97 1013.0
20260504191541 56 342 0.0 0.0 0.02 0.78 0.37 96 1012.8
20260504190027 56 342 0.0 0.0 0.02 0.78 0.37 97 1012.7
20260504184525 57 10 0.0 0.0 0.02 0.77 0.36 97 1012.6
20260504183037 57 10 0.0 0.0 0.02 0.77 0.36 97 1012.8
20260504181527 57 10 0.0 0.0 0.02 0.76 0.35 97 1012.9
20260504180025 57 10 0.0 0.0 0.02 0.77 0.35 97 1012.7
20260504174524 57 10 0.0 0.0 0.02 0.76 0.35 97 1012.5
20260504173028 57 10 0.0 0.0 0.02 0.76 0.34 97 1012.6
20260504171523 57 10 0.0 0.0 0.03 0.76 0.34 96 1012.7
20260504081544 55 78 0.0 0.0 0.00 0.54 0.08 99 1014.2
20260504050017 50 336 0.0 0.0 0.00 0.56 0.08 98 1012.9
20260504044520 50 336 0.0 0.0 0.00 0.56 0.08 98 1012.9
20260504043013 50 336 0.0 0.0 0.00 0.56 0.08 98 1012.9
20260504041511 51 336 0.0 0.0 0.00 0.56 0.08 98 1013.0
20260504040011 51 336 0.0 2.0 0.00 0.61 0.08 98 1013.0
20260504034510 51 336 0.0 1.0 0.00 0.61 0.08 98 1012.9
20260504033009 51 336 0.0 0.0 0.00 0.61 0.08 98 1013.1
20260504031508 51 336 0.0 0.0 0.00 0.61 0.08 98 1013.1
20260504030022 52 336 0.0 2.0 0.00 0.61 0.08 98 1013.1
20260504024507 51 302 0.0 3.0 0.00 0.61 0.08 98 1013.1
20260504023005 52 302 0.0 2.0 0.00 0.61 0.08 98 1013.1